Wind_Speed
34 33 36 33 29 28 28 30 29 32 32 34 37 40 37 41 38 36 34 35 38 39 40 41 41 38 38
31 30 32 36 34 26 23 28 29 29 29 31 34 35 37 39 40 39 39 39 37 38 42 41 41 41 39
33 30 30 31 30 29 30 27 26 29 29 29 29 31 33 33 33 33 33 34 36 37 38 37 38 38 41
35 33 32 30 25 26 28 26 29 27 26 27 28 29 33 36 37 36 34 33 33 36 38 39 41 41 42
28 27 28 23 23 23 27 28 27 26 27 27 28 27 27 29 32 32 31 32 32 32 36 39 38 41 42
24 24 25 23 22 26 26 23 25 26 24 25 24 26 26 23 21 26 30 31 33 35 35 37 37 39 40
18 17 17 17 17 19 20 20 22 16 16 19 19 20 22 24 24 21 23 25 28 31 33 34 36 36 36
21 21 19 19 18 18 19 19 19 19 20 22 19 19 19 23 23 23 25 27 30 29 31 32 35 38 34
19 19 19 20 21 21 23 23 25 28 27 26 26 26 26 27 25 26 27 27 26 26 28 28 31 33 33
19 18 18 21 22 24 25 25 23 24 24 25 26 27 25 29 27 27 29 26 27 27 30 31 31 31 32
20 19 17 17 16 16 15 15 18 20 17 16 19 22 21 15 17 20 22 22 21 21 21 25 25 26 27
14 15 15 14 13 11 11 11 12 14 14 15 15 15 17 16 14 14 15 17 19 20 23 25 26 28 29
11 11 12 11 10 10 11 11 11 12 12 12 12 13 14 16 17 18 19 18 19 21 22 22 22 24 26
8 9 9 8 8 8 7 6 6 7 6 9 9 11 11 14 17 18 19 15 15 15 18 22 23 23 23
4 4 4 5 5 4 3 5 4 5 7 9 10 11 11 12 14 14 14 15 15 14 16 18 19 20 21
2 3 4 4 5 5 4 4 4 4 6 7 8 8 8 6 6 7 10 10 10 13 16 19 21 17 15
3 4 5 4 4 5 5 5 6 6 6 6 5 5 5 5 9 7 8 14 16 14 14 17 20 18 15
Wind_Direction
266 265 261 260 259 258 250 246 248 246 239 239 242 243 241 244 246 250 255 255 258 263 257 251 248 249 249
267 264 259 259 263 262 259 252 249 251 248 244 242 240 242 240 246 249 251 253 254 257 256 256 253 251 249
270 266 264 253 252 262 265 261 260 254 252 253 253 246 240 241 242 246 249 252 253 255 257 259 258 256 253
274 271 266 256 251 256 262 260 258 259 255 257 257 256 254 249 247 252 257 258 258 256 256 257 257 254 251
270 269 259 252 253 257 261 262 261 257 261 261 257 260 257 254 255 255 257 258 257 256 254 254 257 254 249
268 258 257 256 246 248 258 261 261 256 261 257 256 255 252 251 256 255 254 256 255 255 255 256 255 253 250
270 273 272 263 259 255 257 253 251 252 256 262 256 252 256 258 249 250 257 261 259 258 257 255 252 249 248
268 263 262 261 259 255 258 262 262 262 253 257 257 260 250 257 255 253 253 255 248 256 255 255 255 253 249
280 273 270 267 267 264 259 262 269 262 262 267 267 267 265 264 258 267 262 264 261 257 256 261 257 256 258
277 275 271 270 268 264 264 261 258 264 257 252 261 268 263 256 255 260 264 261 255 252 253 250 252 251 252
264 267 270 268 266 266 264 261 256 245 246 236 244 251 240 240 244 238 243 243 242 245 250 254 254 255 256
265 264 266 269 271 270 271 270 268 268 258 252 250 244 246 248 242 243 239 248 257 264 267 269 269 267 265
271 271 270 268 268 277 281 278 280 278 273 264 261 263 259 266 269 267 268 266 269 271 272 271 271 269 266
275 278 277 268 269 265 258 261 263 270 263 273 266 264 267 264 264 266 273 270 270 271 268 267 266 266 269
276 291 294 294 296 297 285 276 270 283 291 289 287 287 282 282 283 284 280 280 283 280 275 274 272 275 278
318 306 306 313 312 315 316 307 294 278 273 281 291 298 300 303 292 290 296 297 291 287 286 285 284 282 285
309 310 308 298 307 313 318 320 322 315 309 309 310 300 311 308 291 287 307 307 303 293 284 285 287 296 299
Height
1397 1396 1396 1397 1399 1399 1399 1400 1401 1404 1409 1411 1415 1418 1421 1427 1426 1428 1429 1429 1432 1436 1439 1441 1443 1444 1447
1389 1388 1388 1389 1392 1390 1393 1392 1393 1396 1399 1402 1405 1408 1410 1413 1417 1418 1418 1421 1422 1426 1430 1431 1434 1436 1437
1382 1383 1382 1382 1384 1386 1386 1388 1386 1389 1392 1394 1396 1398 1401 1403 1406 1407 1408 1410 1415 1417 1420 1421 1424 1426 1429
1377 1376 1377 1376 1378 1380 1382 1382 1383 1383 1384 1386 1388 1390 1392 1395 1396 1397 1400 1403 1406 1407 1410 1411 1414 1416 1418
1372 1371 1370 1371 1373 1375 1377 1376 1377 1378 1378 1380 1382 1382 1384 1387 1388 1391 1393 1394 1396 1397 1400 1403 1404 1406 1406
1367 1366 1365 1367 1368 1369 1369 1370 1370 1371 1372 1374 1375 1375 1377 1380 1382 1382 1383 1385 1387 1389 1391 1393 1395 1396 1396
1364 1363 1363 1363 1363 1364 1364 1365 1366 1368 1368 1367 1368 1370 1372 1374 1374 1376 1376 1377 1380 1381 1382 1384 1386 1388 1387
1360 1359 1359 1358 1359 1360 1361 1361 1362 1362 1363 1363 1365 1365 1366 1365 1367 1368 1369 1368 1370 1373 1372 1375 1378 1380 1380
1355 1355 1355 1355 1355 1356 1356 1356 1356 1356 1358 1357 1358 1359 1360 1360 1359 1360 1362 1361 1363 1362 1363 1367 1369 1371 1373
1351 1350 1350 1350 1350 1350 1349 1349 1350 1350 1350 1351 1351 1351 1352 1351 1352 1353 1355 1354 1355 1353 1357 1358 1360 1361 1363
1345 1345 1345 1345 1344 1344 1344 1344 1344 1343 1343 1344 1343 1344 1346 1345 1346 1346 1347 1346 1347 1348 1349 1350 1351 1353 1354
1340 1340 1340 1340 1340 1339 1339 1338 1339 1340 1338 1339 1339 1340 1339 1340 1342 1341 1340 1340 1341 1341 1343 1343 1345 1346 1347
1337 1337 1337 1336 1335 1336 1336 1335 1335 1335 1334 1334 1335 1334 1335 1336 1335 1335 1336 1336 1335 1335 1335 1336 1337 1337 1338
1337 1336 1335 1333 1333 1332 1331 1331 1332 1332 1330 1331 1331 1331 1331 1332 1332 1330 1331 1331 1329 1330 1329 1330 1331 1331 1331
1335 1334 1333 1332 1331 1330 1329 1328 1327 1327 1327 1327 1327 1327 1328 1328 1327 1327 1326 1326 1325 1325 1325 1325 1325 1325 1325
1332 1332 1331 1331 1329 1329 1328 1327 1326 1324 1323 1324 1324 1325 1324 1325 1325 1324 1324 1323 1323 1322 1321 1320 1319 1319 1319
1332 1331 1331 1328 1328 1327 1326 1326 1326 1325 1324 1323 1321 1321 1321 1322 1322 1322 1321 1320 1319 1318 1317 1316 1313 1313 1312